| time (UTC) | temp F | wind direction | speed MPH | gust MPH | rain 1hr in | rain 24hr in | rain mn in | humidity % | barometer mb |
| 20260503223658 | 77 | 20 | 1.0 | 2.0 | 0.00 | 0.02 | 0.02 | 34 | 1017.9 |
| 20260503223154 | 77 | 43 | 2.0 | 3.0 | 0.00 | 0.02 | 0.02 | 34 | 1017.9 |
| 20260503222652 | 77 | 348 | 3.0 | 3.0 | 0.00 | 0.02 | 0.02 | 33 | 1017.9 |
| 20260503222149 | 78 | 28 | 4.0 | 6.0 | 0.00 | 0.02 | 0.02 | 33 | 1017.9 |
| 20260503221648 | 78 | 9 | 3.0 | 4.0 | 0.00 | 0.02 | 0.02 | 32 | 1017.9 |
| 20260503221144 | 77 | 40 | 2.0 | 2.0 | 0.00 | 0.02 | 0.02 | 33 | 1018.1 |
| 20260503220641 | 77 | 351 | 2.0 | 3.0 | 0.00 | 0.02 | 0.02 | 31 | 1018.0 |
| 20260503220138 | 77 | 75 | 4.0 | 4.0 | 0.00 | 0.02 | 0.02 | 32 | 1017.9 |
| 20260503215635 | 77 | 8 | 6.0 | 8.0 | 0.00 | 0.02 | 0.02 | 32 | 1017.8 |
| 20260503215131 | 78 | 23 | 4.0 | 6.0 | 0.00 | 0.02 | 0.02 | 31 | 1018.1 |
| 20260503214630 | 79 | 359 | 2.0 | 2.0 | 0.00 | 0.02 | 0.02 | 32 | 1018.1 |
| 20260503214126 | 79 | 318 | 1.0 | 1.0 | 0.00 | 0.02 | 0.02 | 34 | 1018.1 |
| 20260503213620 | 78 | 319 | 2.0 | 2.0 | 0.00 | 0.02 | 0.02 | 32 | 1018.0 |
| 20260503213116 | 78 | 316 | 6.0 | 8.0 | 0.00 | 0.02 | 0.02 | 31 | 1018.1 |
| 20260503212614 | 77 | 16 | 5.0 | 6.0 | 0.00 | 0.02 | 0.02 | 33 | 1018.2 |
| 20260503212111 | 77 | 14 | 1.0 | 2.0 | 0.00 | 0.02 | 0.02 | 33 | 1018.1 |
| 20260503211608 | 78 | 19 | 2.0 | 3.0 | 0.00 | 0.02 | 0.02 | 35 | 1018.2 |
| 20260503211103 | 79 | 357 | 3.0 | 3.0 | 0.00 | 0.02 | 0.02 | 33 | 1018.5 |
| 20260503210600 | 79 | 340 | 2.0 | 3.0 | 0.00 | 0.02 | 0.02 | 33 | 1018.6 |
| 20260503210055 | 79 | 301 | 4.0 | 4.0 | 0.00 | 0.02 | 0.02 | 31 | 1018.5 |
| 20260503205552 | 78 | 19 | 4.0 | 4.0 | 0.00 | 0.02 | 0.02 | 32 | 1018.6 |
| 20260503205049 | 78 | 45 | 3.0 | 4.0 | 0.00 | 0.02 | 0.02 | 35 | 1018.8 |
| 20260503204546 | 78 | 282 | 2.0 | 3.0 | 0.00 | 0.02 | 0.02 | 36 | 1018.5 |
| 20260503204043 | 78 | 33 | 6.0 | 7.0 | 0.00 | 0.02 | 0.02 | 32 | 1018.8 |
| 20260503203541 | 78 | 1 | 3.0 | 3.0 | 0.00 | 0.02 | 0.02 | 32 | 1018.9 |
| 20260503203037 | 77 | 22 | 1.0 | 2.0 | 0.00 | 0.02 | 0.02 | 34 | 1018.9 |
| 20260503202535 | 77 | 31 | 2.0 | 3.0 | 0.00 | 0.02 | 0.02 | 32 | 1018.9 |
| 20260503202033 | 77 | 34 | 2.0 | 2.0 | 0.00 | 0.02 | 0.02 | 34 | 1019.0 |
| 20260503201531 | 79 | 10 | 4.0 | 6.0 | 0.00 | 0.02 | 0.02 | 34 | 1019.0 |
| 20260503201028 | 79 | 23 | 2.0 | 3.0 | 0.00 | 0.02 | 0.02 | 31 | 1019.1 |
| 20260503200524 | 77 | 14 | 2.0 | 3.0 | 0.00 | 0.02 | 0.02 | 34 | 1019.3 |
| 20260503200021 | 78 | 22 | 7.0 | 10.0 | 0.00 | 0.02 | 0.02 | 32 | 1019.3 |
| 20260503195519 | 77 | 20 | 2.0 | 3.0 | 0.00 | 0.02 | 0.02 | 34 | 1019.4 |
| 20260503195015 | 78 | 77 | 4.0 | 4.0 | 0.00 | 0.02 | 0.02 | 35 | 1019.5 |
| 20260503194512 | 78 | 19 | 4.0 | 6.0 | 0.00 | 0.02 | 0.02 | 34 | 1019.6 |
| 20260503194012 | 77 | 4 | 3.0 | 4.0 | 0.00 | 0.02 | 0.02 | 33 | 1019.6 |
| 20260503193509 | 78 | 84 | 2.0 | 3.0 | 0.00 | 0.02 | 0.02 | 34 | 1019.8 |
| 20260503193004 | 77 | 50 | 0.0 | 1.0 | 0.00 | 0.02 | 0.02 | 34 | 1020.0 |
| 20260503192500 | 78 | 16 | 2.0 | 2.0 | 0.00 | 0.02 | 0.02 | 35 | 1019.9 |
| 20260503191955 | 78 | 237 | 6.0 | 10.0 | 0.00 | 0.02 | 0.02 | 34 | 1019.9 |
| 20260503191453 | 77 | 7 | 3.0 | 3.0 | 0.00 | 0.02 | 0.02 | 34 | 1020.1 |
| 20260503190949 | 77 | 2 | 2.0 | 3.0 | 0.00 | 0.02 | 0.02 | 33 | 1020.1 |
| 20260503190447 | 77 | 24 | 2.0 | 2.0 | 0.00 | 0.02 | 0.02 | 32 | 1020.5 |
| 20260503185944 | 77 | 43 | 3.0 | 4.0 | 0.00 | 0.02 | 0.02 | 32 | 1020.3 |
| 20260503185440 | 76 | 15 | 5.0 | 7.0 | 0.00 | 0.02 | 0.02 | 31 | 1020.6 |
| 20260503184940 | 77 | 18 | 6.0 | 8.0 | 0.00 | 0.02 | 0.02 | 33 | 1020.5 |
| 20260503184436 | 77 | 345 | 2.0 | 4.0 | 0.00 | 0.02 | 0.02 | 32 | 1020.8 |
| 20260503183933 | 77 | 321 | 5.0 | 6.0 | 0.00 | 0.02 | 0.02 | 35 | 1020.9 |
| 20260503183430 | 77 | 24 | 4.0 | 4.0 | 0.00 | 0.02 | 0.02 | 35 | 1021.1 |
| 20260503182927 | 77 | 30 | 5.0 | 6.0 | 0.00 | 0.02 | 0.02 | 33 | 1020.9 |
| 20260503182426 | 77 | 31 | 3.0 | 3.0 | 0.00 | 0.02 | 0.02 | 35 | 1021.1 |
| 20260503181923 | 77 | 16 | 4.0 | 7.0 | 0.00 | 0.02 | 0.02 | 34 | 1021.2 |
| 20260503181420 | 77 | 37 | 2.0 | 4.0 | 0.00 | 0.02 | 0.02 | 36 | 1021.0 |
| 20260503180916 | 77 | 53 | 5.0 | 6.0 | 0.00 | 0.02 | 0.02 | 34 | 1021.3 |
| 20260503180414 | 77 | 355 | 6.0 | 8.0 | 0.00 | 0.02 | 0.02 | 38 | 1021.0 |
| 20260503175910 | 76 | 59 | 2.0 | 3.0 | 0.00 | 0.02 | 0.02 | 37 | 1021.3 |
| 20260503175408 | 76 | 44 | 4.0 | 6.0 | 0.00 | 0.02 | 0.02 | 35 | 1021.2 |
| 20260503174903 | 76 | 59 | 2.0 | 3.0 | 0.00 | 0.02 | 0.02 | 35 | 1021.2 |
| 20260503174402 | 77 | 48 | 5.0 | 6.0 | 0.00 | 0.02 | 0.02 | 33 | 1021.4 |
| 20260503173856 | 77 | 316 | 2.0 | 2.0 | 0.00 | 0.02 | 0.02 | 36 | 1021.3 |
| 20260503173353 | 76 | 288 | 2.0 | 3.0 | 0.00 | 0.02 | 0.02 | 36 | 1021.4 |
| 20260503172849 | 75 | 7 | 3.0 | 4.0 | 0.00 | 0.02 | 0.02 | 34 | 1021.5 |
| 20260503172347 | 75 | 359 | 4.0 | 4.0 | 0.00 | 0.02 | 0.02 | 35 | 1021.4 |
| 20260503171843 | 75 | 27 | 1.0 | 1.0 | 0.00 | 0.02 | 0.02 | 34 | 1021.5 |
| 20260503171340 | 75 | 44 | 7.0 | 9.0 | 0.00 | 0.02 | 0.02 | 34 | 1021.7 |
| 20260503170837 | 76 | 19 | 6.0 | 7.0 | 0.00 | 0.02 | 0.02 | 34 | 1021.7 |
| 20260503170334 | 75 | 25 | 2.0 | 2.0 | 0.00 | 0.02 | 0.02 | 36 | 1021.7 |
| 20260503150726 | 71 | 32 | 3.0 | 3.0 | 0.00 | 0.02 | 0.02 | 41 | 1022.5 |
| 20260503150222 | 71 | 344 | 4.0 | 4.0 | 0.00 | 0.02 | 0.02 | 42 | 1022.5 |
| 20260503140147 | 68 | 55 | 1.0 | 2.0 | 0.00 | 0.01 | 0.01 | 55 | 1022.0 |
| 20260503131116 | 61 | 34 | 2.0 | 2.0 | 0.00 | 0.01 | 0.01 | 68 | 1021.9 |
| 20260503130614 | 60 | 58 | 2.0 | 2.0 | 0.00 | 0.01 | 0.01 | 68 | 1021.8 |
| 20260503130112 | 60 | 29 | 2.0 | 2.0 | 0.00 | 0.01 | 0.01 | 71 | 1021.7 |
| 20260503110504 | 45 | 67 | 0.0 | 1.0 | 0.00 | 0.01 | 0.01 | 94 | 1020.7 |
| 20260503090355 | 47 | 36 | 0.0 | 0.0 | 0.00 | 0.01 | 0.01 | 88 | 1020.1 |
| 20260503081323 | 48 | 42 | 0.0 | 0.0 | 0.00 | 0.01 | 0.01 | 86 | 1019.6 |
| 20260503080819 | 48 | 42 | 0.0 | 0.0 | 0.00 | 0.01 | 0.01 | 86 | 1019.7 |
| 20260503080317 | 49 | 52 | 0.0 | 0.0 | 0.00 | 0.01 | 0.01 | 86 | 1019.5 |
| 20260503072753 | 51 | 48 | 0.0 | 0.0 | 0.00 | 0.01 | 0.01 | 84 | 1019.2 |
| 20260503072250 | 51 | 54 | 0.0 | 0.0 | 0.00 | 0.01 | 0.01 | 84 | 1019.1 |
| 20260503071746 | 51 | 40 | 0.0 | 0.0 | 0.00 | 0.01 | 0.01 | 84 | 1019.2 |
| 20260503071243 | 51 | 41 | 0.0 | 0.0 | 0.00 | 0.01 | 0.01 | 84 | 1019.2 |
| 20260503070739 | 51 | 49 | 1.0 | 1.0 | 0.00 | 0.01 | 0.01 | 85 | 1019.2 |
| 20260503070238 | 51 | 52 | 0.0 | 1.0 | 0.00 | 0.01 | 0.01 | 86 | 1019.2 |
| 20260503060202 | 50 | 36 | 0.0 | 0.0 | 0.00 | 0.01 | 0.01 | 85 | 1019.4 |
| 20260503054649 | 52 | 36 | 0.0 | 0.0 | 0.00 | 0.01 | 0.01 | 81 | 1019.1 |
| 20260503054147 | 53 | 36 | 0.0 | 0.0 | 0.00 | 0.01 | 0.01 | 79 | 1019.2 |
| 20260503053644 | 53 | 36 | 0.0 | 0.0 | 0.00 | 0.01 | 0.01 | 78 | 1019.1 |
| 20260503053143 | 53 | 35 | 0.0 | 0.0 | 0.00 | 0.01 | 0.01 | 78 | 1019.0 |
| 20260503052639 | 53 | 34 | 0.0 | 0.0 | 0.00 | 0.01 | 0.01 | 77 | 1018.9 |
| 20260503052135 | 53 | 32 | 1.0 | 1.0 | 0.00 | 0.01 | 0.01 | 78 | 1019.0 |
| 20260503051630 | 54 | 28 | 0.0 | 0.0 | 0.00 | 0.01 | 0.01 | 78 | 1019.0 |
| 20260503051129 | 54 | 44 | 0.0 | 0.0 | 0.07 | 0.01 | 0.01 | 78 | 1018.9 |
| 20260503050625 | 55 | 40 | 1.0 | 1.0 | 0.07 | 0.01 | 0.01 | 78 | 1018.9 |
| 20260503050122 | 54 | 58 | 1.0 | 1.0 | 0.00 | 0.00 | 0.00 | 80 | 1018.9 |
| 20260503045620 | 53 | 32 | 2.0 | 2.0 | 0.00 | 0.10 | 0.10 | 85 | 1018.6 |
| 20260503045116 | 52 | 18 | 1.0 | 1.0 | 0.00 | 0.10 | 0.10 | 87 | 1018.6 |
| 20260503044613 | 51 | 32 | 1.0 | 1.0 | 0.00 | 0.10 | 0.10 | 89 | 1018.7 |
| 20260503044111 | 51 | 41 | 0.0 | 0.0 | 0.00 | 0.10 | 0.10 | 89 | 1018.8 |
| 20260503043607 | 51 | 45 | 0.0 | 0.0 | 0.00 | 0.10 | 0.10 | 89 | 1018.8 |
| 20260503043104 | 51 | 45 | 0.0 | 0.0 | 0.00 | 0.10 | 0.10 | 89 | 1018.7 |
| 20260503042600 | 51 | 41 | 0.0 | 0.0 | 0.00 | 0.10 | 0.10 | 89 | 1018.8 |
| 20260503042056 | 51 | 34 | 0.0 | 0.0 | 0.00 | 0.10 | 0.10 | 89 | 1018.7 |
| 20260503041553 | 52 | 41 | 0.0 | 0.0 | 0.00 | 0.10 | 0.10 | 88 | 1018.7 |
| 20260503041051 | 52 | 46 | 0.0 | 0.0 | 0.00 | 0.10 | 0.10 | 88 | 1018.8 |
| 20260503040548 | 52 | 49 | 0.0 | 0.0 | 0.00 | 0.10 | 0.10 | 88 | 1018.7 |
| 20260503040045 | 52 | 49 | 0.0 | 0.0 | 0.00 | 0.10 | 0.10 | 88 | 1018.6 |
| 20260503035542 | 53 | 45 | 0.0 | 0.0 | 0.00 | 0.10 | 0.10 | 86 | 1018.8 |
| 20260503035040 | 53 | 45 | 0.0 | 0.0 | 0.00 | 0.10 | 0.10 | 86 | 1018.7 |
| 20260503034537 | 53 | 45 | 0.0 | 0.0 | 0.00 | 0.10 | 0.10 | 86 | 1018.7 |
| 20260503034034 | 53 | 45 | 0.0 | 0.0 | 0.00 | 0.10 | 0.10 | 85 | 1018.5 |
| 20260503033531 | 53 | 69 | 0.0 | 0.0 | 0.00 | 0.10 | 0.10 | 84 | 1018.4 |
| 20260503033029 | 53 | 69 | 0.0 | 0.0 | 0.00 | 0.10 | 0.10 | 84 | 1018.4 |
| 20260503032527 | 54 | 62 | 0.0 | 0.0 | 0.00 | 0.10 | 0.10 | 82 | 1018.4 |
| 20260503032025 | 54 | 39 | 0.0 | 0.0 | 0.00 | 0.10 | 0.10 | 81 | 1018.3 |
| 20260503031522 | 54 | 44 | 0.0 | 0.0 | 0.00 | 0.10 | 0.10 | 79 | 1018.2 |
| 20260503031019 | 54 | 43 | 0.0 | 0.0 | 0.00 | 0.10 | 0.10 | 78 | 1018.2 |
| 20260503030515 | 55 | 43 | 0.0 | 0.0 | 0.00 | 0.10 | 0.10 | 76 | 1018.3 |
| 20260503030013 | 55 | 43 | 0.0 | 0.0 | 0.00 | 0.10 | 0.10 | 74 | 1018.1 |
| 20260503025509 | 56 | 43 | 0.0 | 0.0 | 0.00 | 0.10 | 0.10 | 73 | 1018.1 |
| 20260503025007 | 56 | 44 | 0.0 | 0.0 | 0.00 | 0.10 | 0.10 | 71 | 1018.1 |
| 20260503024503 | 57 | 47 | 0.0 | 0.0 | 0.00 | 0.10 | 0.10 | 70 | 1018.1 |
| 20260503024000 | 57 | 46 | 0.0 | 0.0 | 0.00 | 0.10 | 0.10 | 69 | 1017.9 |
| 20260503023457 | 57 | 45 | 0.0 | 0.0 | 0.00 | 0.10 | 0.10 | 67 | 1017.9 |
| 20260503022954 | 58 | 46 | 0.0 | 0.0 | 0.00 | 0.10 | 0.10 | 65 | 1017.8 |
| 20260503022449 | 58 | 34 | 0.0 | 0.0 | 0.00 | 0.10 | 0.10 | 64 | 1018.0 |
| 20260503021945 | 59 | 27 | 0.0 | 0.0 | 0.00 | 0.10 | 0.10 | 63 | 1017.7 |
| 20260503021442 | 59 | 20 | 1.0 | 1.0 | 0.00 | 0.10 | 0.10 | 63 | 1017.6 |
| 20260503020939 | 59 | 45 | 1.0 | 1.0 | 0.00 | 0.10 | 0.10 | 63 | 1017.6 |
| 20260503020437 | 59 | 32 | 1.0 | 1.0 | 0.00 | 0.10 | 0.10 | 63 | 1017.5 |
| 20260503015933 | 59 | 38 | 2.0 | 2.0 | 0.00 | 0.10 | 0.10 | 62 | 1017.5 |
| 20260503015430 | 59 | 27 | 1.0 | 1.0 | 0.00 | 0.10 | 0.10 | 62 | 1017.4 |
| 20260503014926 | 60 | 36 | 1.0 | 1.0 | 0.00 | 0.10 | 0.10 | 62 | 1017.4 |
| 20260503014423 | 60 | 43 | 0.0 | 0.0 | 0.00 | 0.10 | 0.10 | 60 | 1017.4 |
| 20260503013921 | 60 | 34 | 1.0 | 1.0 | 0.00 | 0.10 | 0.10 | 60 | 1017.1 |
| 20260503013418 | 61 | 344 | 2.0 | 2.0 | 0.00 | 0.10 | 0.10 | 59 | 1017.1 |
| 20260503012915 | 61 | 322 | 3.0 | 4.0 | 0.00 | 0.10 | 0.10 | 60 | 1017.1 |
| 20260503012413 | 61 | 330 | 2.0 | 2.0 | 0.00 | 0.10 | 0.10 | 59 | 1016.9 |
| 20260503011909 | 61 | 35 | 2.0 | 2.0 | 0.00 | 0.10 | 0.10 | 58 | 1016.9 |
| 20260503011406 | 62 | 29 | 1.0 | 1.0 | 0.00 | 0.10 | 0.10 | 58 | 1016.8 |
| 20260503010903 | 62 | 22 | 1.0 | 1.0 | 0.00 | 0.10 | 0.10 | 57 | 1016.8 |
| 20260503010400 | 62 | 358 | 1.0 | 2.0 | 0.00 | 0.10 | 0.10 | 56 | 1016.6 |
| 20260503005857 | 62 | 7 | 2.0 | 3.0 | 0.00 | 0.10 | 0.10 | 56 | 1016.6 |
| 20260503005354 | 63 | 29 | 2.0 | 3.0 | 0.00 | 0.10 | 0.10 | 55 | 1016.4 |
| 20260503004850 | 63 | 27 | 2.0 | 2.0 | 0.00 | 0.10 | 0.10 | 55 | 1016.5 |
| 20260503004348 | 64 | 17 | 2.0 | 3.0 | 0.00 | 0.10 | 0.10 | 54 | 1016.2 |
| 20260503003845 | 64 | 28 | 1.0 | 1.0 | 0.00 | 0.10 | 0.10 | 53 | 1016.2 |
| 20260503003342 | 65 | 35 | 2.0 | 2.0 | 0.00 | 0.10 | 0.10 | 51 | 1016.0 |
| 20260503002838 | 65 | 2 | 2.0 | 3.0 | 0.00 | 0.10 | 0.10 | 50 | 1015.8 |
| 20260503002336 | 66 | 34 | 3.0 | 4.0 | 0.00 | 0.10 | 0.10 | 49 | 1015.6 |
| 20260503001832 | 66 | 36 | 2.0 | 3.0 | 0.00 | 0.10 | 0.10 | 49 | 1015.6 |
| 20260503001328 | 67 | 47 | 3.0 | 3.0 | 0.00 | 0.10 | 0.10 | 47 | 1015.5 |
| 20260503000826 | 67 | 334 | 4.0 | 4.0 | 0.00 | 0.10 | 0.10 | 46 | 1015.5 |
| 20260503000325 | 68 | 69 | 4.0 | 4.0 | 0.00 | 0.10 | 0.10 | 46 | 1015.4 |
| 20260502235820 | 68 | 31 | 4.0 | 4.0 | 0.05 | 0.10 | 0.10 | 47 | 1015.4 |
| 20260502235318 | 69 | 28 | 4.0 | 6.0 | 0.05 | 0.10 | 0.10 | 44 | 1015.2 |
| 20260502234814 | 69 | 43 | 3.0 | 3.0 | 0.00 | 0.09 | 0.09 | 45 | 1015.2 |
| 20260502234311 | 69 | 12 | 2.0 | 3.0 | 0.00 | 0.09 | 0.09 | 45 | 1014.9 |
| 20260502233808 | 69 | 21 | 5.0 | 6.0 | 0.00 | 0.09 | 0.09 | 44 | 1015.1 |
| 20260502233304 | 70 | 37 | 5.0 | 7.0 | 0.00 | 0.09 | 0.09 | 44 | 1015.0 |
| 20260502232800 | 70 | 358 | 5.0 | 6.0 | 0.00 | 0.09 | 0.09 | 44 | 1014.9 |
| 20260502232257 | 70 | 357 | 4.0 | 7.0 | 0.00 | 0.09 | 0.09 | 44 | 1014.7 |
| 20260502231754 | 71 | 28 | 5.0 | 6.0 | 0.00 | 0.09 | 0.09 | 44 | 1014.7 |
| 20260502231252 | 70 | 85 | 5.0 | 7.0 | 0.00 | 0.09 | 0.09 | 44 | 1014.7 |
| 20260502230750 | 71 | 20 | 6.0 | 8.0 | 0.00 | 0.09 | 0.09 | 42 | 1014.6 |
| 20260502230248 | 71 | 29 | 6.0 | 7.0 | 0.00 | 0.09 | 0.09 | 44 | 1014.6 |
| 20260502225744 | 72 | 282 | 6.0 | 8.0 | 0.00 | 0.09 | 0.09 | 42 | 1014.8 |
| 20260502225241 | 71 | 16 | 6.0 | 7.0 | 0.00 | 0.09 | 0.09 | 43 | 1014.5 |
| 20260502224737 | 72 | 7 | 9.0 | 14.0 | 0.00 | 0.09 | 0.09 | 43 | 1014.7 |
| 20260502224234 | 71 | 23 | 4.0 | 4.0 | 0.00 | 0.09 | 0.09 | 44 | 1014.6 |